Location: Libas
(9.8833°N, 125.9833°E)
Time: 21:30:33
(UTC+00:00)

Cosmos 2180 Rocket - Pass Details

Date: 27 October 2020
Orbit: 953 x 1005 km, 82.9° (Epoch: 25 November)

Event Time Altitude Azimuth Distance (km) Brightness Sun altitude
Rises 20:10:34 0° 349° (N) 3,645 7.3 -19.0°
Reaches altitude 10° 20:13:06 10° 345° (NNW) 2,692 6.6 -18.3°
Maximum altitude 20:19:07 58° 268° (W) 1,103 4.5 -16.9°
Drops below altitude 10° 20:25:06 10° 190° (S) 2,674 6.8 -15.4°
Sets 20:27:37 0° 186° (S) 3,619 7.6 -14.8°
